User: anonymous   Login
Location: Augustenthal
(51.7167°N, 10.2833°E)
Time: 01:51:58
(UTC+00:00)
Language:

Cosmos 1733 - Orbit

View from above orbital plane
View from above orbital plane
View from above satellite
View from above satellite

Ground track
Ground track

The orbit data is extracted from the following two-line orbital elements,

1 16611U 86018A   21208.45051540  .00000771  00000-0  36350-4 0  9991
2 16611  82.4897 350.9594 0012573 162.9837 197.1821 15.17916838936336
Epoch (UTC): 27 July 2021 10:48:44
Eccentricity: 0.0012573
inclination: 82.4897°
perigee height: 503 km
apogee height: 521 km
right ascension of ascending node: 350.9594°
argument of perigee: 162.9837°
revolutions per day: 15.17916838
mean anomaly at epoch: 197.1821°
orbit number at epoch: 93633

The dashed part of the orbit path shows where the satellite is in the earth's shadow,  

DLR